GW0234 Weather Reports


Display with metric or nautical units.
time (UTC)temp
F
wind
direction
speed
MPH
gust
MPH
rain 1hr
in
rain 24hr
in
rain mn
in
humidity
%
barometer
mb
20240519051609 55 0 0.0 0.0 0.00 0.19 0.00 91 1012.3
20240519050103 56 0 0.0 1.0 0.00 0.19 0.00 91 1012.1
20240519044557 56 0 0.0 1.0 0.00 0.23 0.00 91 1012.1
20240519043056 56 0 0.0 0.0 0.00 0.23 0.00 90 1012.0
20240519041557 57 0 0.0 0.0 0.00 0.23 0.00 90 1011.9
20240519040059 57 0 0.0 0.0 0.00 0.23 0.00 90 1011.8
20240519034615 57 0 0.0 0.0 0.00 0.23 0.23 89 1011.9
20240519033134 58 0 0.0 0.0 0.00 0.23 0.23 89 1011.7
20240519031603 58 0 0.0 1.0 0.00 0.23 0.23 89 1011.7
20240519030103 58 0 0.0 0.0 0.00 0.23 0.23 88 1011.7
20240519024641 59 0 0.0 0.0 0.00 0.26 0.23 88 1011.7
20240519023058 60 0 0.0 0.0 0.00 0.26 0.23 88 1011.5
20240519021602 60 0 0.0 1.0 0.00 0.26 0.23 87 1011.4
20240519020055 61 0 0.0 0.0 0.00 0.26 0.23 86 1011.2
20240519014557 62 0 0.0 1.0 0.00 0.26 0.23 86 1011.2
20240519013102 62 0 0.0 0.0 0.00 0.26 0.23 84 1011.1
20240519011555 62 0 0.0 0.0 0.00 0.26 0.23 83 1010.9
20240519010100 64 0 0.0 0.0 0.00 0.26 0.23 81 1010.8
20240519004557 65 0 0.0 0.0 0.00 0.26 0.23 79 1010.8
20240519003059 67 0 0.0 1.0 0.00 0.26 0.23 77 1010.7
20240519001557 68 98 0.0 2.0 0.00 0.26 0.23 73 1010.7
20240519000112 70 98 0.0 3.0 0.00 0.26 0.23 70 1010.6
20240518234609 71 181 0.0 2.0 0.00 0.26 0.23 67 1010.5
20240518233055 73 0 1.0 4.0 0.00 0.26 0.23 66 1010.6
20240518231556 74 119 1.0 4.0 0.00 0.26 0.23 61 1010.4
20240518230057 76 138 1.0 8.0 0.00 0.26 0.23 59 1010.3
20240518224600 78 128 1.0 6.0 0.00 0.26 0.23 58 1010.3
20240518223102 78 136 1.0 6.0 0.00 0.26 0.23 55 1010.2
20240518221601 79 134 2.0 7.0 0.00 0.26 0.23 53 1010.3
20240518220057 79 108 1.0 4.0 0.00 0.26 0.23 56 1010.3
20240518214555 79 152 1.0 5.0 0.00 0.28 0.23 54 1010.4
20240518213058 79 150 0.0 5.0 0.00 0.28 0.23 56 1010.3
20240518211558 78 211 2.0 6.0 0.00 0.28 0.23 57 1010.3
20240518210057 79 89 0.0 6.0 0.00 0.28 0.23 57 1010.3
20240518204555 78 0 2.0 5.0 0.00 0.29 0.23 58 1010.3
20240518203057 78 105 0.0 7.0 0.00 0.29 0.23 59 1010.3
20240518201555 79 128 2.0 10.0 0.00 0.29 0.23 57 1010.4
20240518200106 79 94 1.0 6.0 0.00 0.29 0.23 58 1010.4
20240518194601 79 229 1.0 4.0 0.00 0.39 0.23 58 1010.4
20240518193059 77 114 2.0 6.0 0.00 0.39 0.23 58 1010.6
20240518191600 78 302 1.0 6.0 0.00 0.39 0.23 60 1010.8
20240518190057 78 151 0.0 8.0 0.00 0.39 0.23 57 1010.9
20240518184554 78 355 1.0 7.0 0.00 0.40 0.23 58 1011.0
20240518183106 77 164 1.0 7.0 0.00 0.40 0.23 58 1011.0
20240518181557 76 119 1.0 6.0 0.00 0.40 0.23 58 1011.0
20240518180105 76 28 2.0 4.0 0.00 0.40 0.23 60 1011.3
20240518174556 76 0 1.0 5.0 0.00 0.42 0.23 60 1011.4
20240518173106 77 265 1.0 6.0 0.00 0.42 0.23 61 1011.6
20240518171615 76 5 1.0 6.0 0.00 0.42 0.23 67 1011.6
20240518170058 75 347 2.0 7.0 0.00 0.42 0.23 62 1011.5
20240518164612 74 323 2.0 6.0 0.00 0.42 0.23 68 1011.6
20240518163108 74 350 1.0 4.0 0.00 0.42 0.23 67 1011.6
20240518161557 73 347 0.0 4.0 0.00 0.42 0.23 70 1011.5
20240518160102 74 0 1.0 4.0 0.00 0.42 0.23 70 1011.5
20240518154558 72 5 1.0 3.0 0.00 0.42 0.23 72 1011.4
20240518153058 72 0 0.0 3.0 0.00 0.42 0.23 71 1011.6
20240518151558 71 338 1.0 3.0 0.00 0.42 0.23 73 1011.6
20240518150105 72 169 1.0 4.0 0.00 0.42 0.23 76 1011.6
20240518144558 71 238 0.0 1.0 0.00 0.44 0.23 78 1011.7
20240518143104 71 236 0.0 3.0 0.00 0.44 0.23 79 1011.7
20240518141559 69 296 0.0 3.0 0.00 0.44 0.23 81 1011.6
20240518140059 68 202 0.0 3.0 0.00 0.44 0.23 83 1011.5
20240518134600 68 194 0.0 2.0 0.00 0.44 0.23 87 1011.6
20240518133101 66 144 0.0 2.0 0.00 0.44 0.23 88 1011.6
20240518131558 66 0 0.0 3.0 0.00 0.44 0.23 92 1011.7
20240518130103 65 18 1.0 3.0 0.00 0.44 0.23 93 1011.8
20240518124558 64 0 0.0 1.0 0.00 0.44 0.23 94 1011.6
20240518123112 64 0 0.0 3.0 0.00 0.44 0.23 94 1011.7
20240518121613 64 0 0.0 1.0 0.00 0.44 0.23 95 1011.6
20240518120101 63 0 0.0 1.0 0.00 0.44 0.23 95 1011.7
20240518114604 63 0 0.0 1.0 0.00 0.44 0.23 95 1011.6
20240518113108 62 0 0.0 0.0 0.00 0.44 0.23 95 1011.6
20240518111608 62 0 0.0 0.0 0.00 0.44 0.23 95 1011.3
20240518110103 61 0 0.0 0.0 0.00 0.44 0.23 95 1011.1
20240518104558 61 0 0.0 0.0 0.00 0.44 0.23 94 1010.9
20240518103058 61 0 0.0 0.0 0.00 0.44 0.23 95 1010.8
20240518101558 61 0 0.0 1.0 0.00 0.44 0.23 94 1010.5
20240518100058 61 0 0.0 1.0 0.00 0.44 0.23 95 1010.2
20240518094600 61 0 0.0 1.0 0.00 0.44 0.23 94 1010.2
20240518093108 61 0 0.0 0.0 0.00 0.44 0.23 94 1010.1
20240518091555 61 0 0.0 0.0 0.00 0.44 0.23 94 1009.9
20240518090059 61 0 0.0 1.0 0.00 0.44 0.23 94 1010.0
20240518084558 61 0 0.0 1.0 0.00 0.44 0.23 94 1009.9
20240518083058 61 0 0.0 0.0 0.01 0.44 0.23 94 1009.9
20240518081608 61 0 0.0 1.0 0.03 0.44 0.23 94 1009.7
20240518080116 61 0 0.0 1.0 0.10 0.44 0.23 94 1009.7
20240518074627 61 342 0.0 1.0 0.15 0.44 0.23 94 1009.7
20240518073148 61 0 0.0 1.0 0.15 0.43 0.22 94 1009.5
20240518071641 61 0 0.0 2.0 0.14 0.41 0.20 94 1009.5
20240518070142 61 0 0.0 2.0 0.07 0.34 0.13 94 1009.5
20240518064637 61 0 0.0 1.0 0.02 0.29 0.08 94 1009.5
20240518063140 61 0 0.0 2.0 0.01 0.28 0.07 94 1009.6
20240518061631 61 0 0.0 1.0 0.00 0.27 0.06 94 1009.7
20240518060150 61 0 0.0 2.0 0.02 0.27 0.06 94 1009.8
20240518054647 61 0 0.0 0.0 0.05 0.27 0.06 94 1009.9
20240518053150 61 0 0.0 1.0 0.06 0.27 0.06 93 1010.1